Billings, MT (59101)

4:43 AM MDT on August 29, 2015 (GMT -0600)
South of Castle Rock Park | | Change Station
CLOSE
Current Station
Personal Weather Station
Location: Billings, MT
Elevation: 3297 ft
Nearby Weather Stations
Active Advisory: Fire Weather Warning

Elev 3297 ft 45.82 °N, 108.50 °W | Updated 1 second ago

Mostly Cloudy
Mostly Cloudy
64.8 °F
Feels Like 64.8 °F
N
0.9
Wind Variable Wind from NE
Gusts 2.2 mph

Today
High -- | Low -- °F
--% Chance of Precip.
Yesterday
High -- | Low -- °F
Precip. -- in
6:31 AM 7:57 PM
Full, 100% visible
Pressure 29.86 in
Visibility 10.0 miles
Clouds Few 14000 ft
Mostly Cloudy 20000 ft
Dew Point 42 °F
Humidity 44%
Rainfall 0.00 in
Snow Depth Not available.
UV 0 out of 12
Pollen 9.30 out of 12
Air Quality Not available.
Flu Activity Not available.
METAR KBIL 290953Z 24015KT 10SM FEW140 BKN200 22/04 A2998 RMK AO2 SLP110 T02170039
Pressure 29.86 in
Visibility 10.0 miles
Clouds Few 14000 ft
Mostly Cloudy 20000 ft
Dew Point 42 °F
Humidity 44%
Rainfall 0.00 in
Snow Depth Not available.
UV 0 out of 12
Pollen 9.30 out of 12
Air Quality Not available.
Flu Activity Not available.
METAR KBIL 290953Z 24015KT 10SM FEW140 BKN200 22/04 A2998 RMK AO2 SLP110 T02170039

10-Day Weather Forecast

×

Almanac

Astronomy

Aug. 29, 2015 Rise Set
Actual Time
Civil Twilight
Nautical Twilight
Astronomical Twilight
Moon
Length of Visible Light
Length of Day
Tomorrow will be .
, % of the Moon is Illuminated

Today's Extremes

State Highs State Lows

Community

WunderPhotos

Upload Photos

1,850,633 photos uploaded!

WunderBlogs® & News

Nearby

Air Quality

  Air Quality AQ Index Pollutant
Not available.

Snow Depth

Station Depth Elevation

Earthquake Activity

City Distance Mag. Time & Date
Minimum magnitude displayed is 2.5.

Coastal Water Temperatures

Place Temperature

Stations

Nearby Weather Stations

Station Location Temp. Windchill Dew Point Humidity Wind Precip. Elev Updated Type
                   
Fire Weather Warning
Statement as of 3:31 AM MDT on August 29, 2015

... Red flag warning remains in effect from noon today to 9 PM MDT
this evening...

* impacts: low humidities... hot temperatures... and strong gusty
winds will create critical fire weather conditions.

* Affected area:
   in south central Mt... fire weather zones 123... 124... 125... 126...
   127 and 128.

* Counties affected:
   in central Mt... Golden Valley... Musselshell... Wheatland.
   In south central Mt... Carbon... park... Stillwater... Sweet Grass
                         Yellowstone.
   In southwest Mt... Gallatin.

* Wind: southwest 10 to 20 mph with gusts 25 to 35 mph.

* Humidity: 10 to 15 percent.

* Temperatures: in the 90s.

Precautionary/preparedness actions...

Be very careful with any open flames. Check with local officials
before conducting any burning.